RYR24Y EPWA-LKPR

Flight info

Callsign RYR24Y
Flight time 0h 56m
Altitude 30000
Route SOXER7G SOXER N869 TOMTI DCT ASTEL DCT GOLOP GOLOP4P
Aircraft B738/M-SDE2E3FGHIRWXY/LB1

Departure

Time 2026-05-05 18:45
Airport Warsaw Chopin Airport (EPWA)

Arrival

Time 2026-05-05 19:41
Airport Václav Havel Airport Prague (LKPR)
Time Latitude Longitude Altitude Speed Heading
2026-05-05 18:00 52.17529 20.97128 361 ft 0 kts 243°
2026-05-05 18:30 52.17531 20.97133 361 ft 3 kts 242°
2026-05-05 18:30 52.17548 20.97160 365 ft 4 kts 219°
2026-05-05 18:31 52.17559 20.97191 361 ft 4 kts 261°
2026-05-05 18:31 52.17555 20.97221 361 ft 4 kts 337°
2026-05-05 18:31 52.17529 20.97229 361 ft 4 kts 352°
2026-05-05 18:31 52.17506 20.97238 363 ft 2 kts 333°
2026-05-05 18:32 52.17505 20.97239 362 ft 0 kts 333°
2026-05-05 18:36 52.17508 20.97237 363 ft 2 kts 333°
2026-05-05 18:36 52.17529 20.97218 361 ft 5 kts 332°
2026-05-05 18:36 52.17560 20.97192 361 ft 5 kts 333°
2026-05-05 18:37 52.17596 20.97161 365 ft 6 kts 333°
2026-05-05 18:37 52.17639 20.97126 361 ft 7 kts 333°
2026-05-05 18:37 52.17676 20.97066 361 ft 8 kts 290°
2026-05-05 18:37 52.17662 20.96983 364 ft 8 kts 241°
2026-05-05 18:38 52.17633 20.96904 367 ft 9 kts 237°
2026-05-05 18:38 52.17593 20.96806 363 ft 12 kts 236°
2026-05-05 18:38 52.17544 20.96674 369 ft 15 kts 240°
2026-05-05 18:38 52.17476 20.96527 364 ft 17 kts 235°
2026-05-05 18:39 52.17433 20.96416 361 ft 1 kts 222°
2026-05-05 18:39 52.17401 20.96391 361 ft 8 kts 192°
2026-05-05 18:39 52.17350 20.96427 361 ft 8 kts 143°
2026-05-05 18:39 52.17299 20.96475 361 ft 9 kts 150°
2026-05-05 18:40 52.17246 20.96524 361 ft 9 kts 151°
2026-05-05 18:40 52.17183 20.96581 361 ft 11 kts 151°
2026-05-05 18:40 52.17108 20.96644 361 ft 13 kts 152°
2026-05-05 18:40 52.17025 20.96718 366 ft 14 kts 152°
2026-05-05 18:41 52.16942 20.96789 362 ft 13 kts 150°
2026-05-05 18:41 52.16863 20.96858 364 ft 13 kts 152°
2026-05-05 18:41 52.16785 20.96927 360 ft 13 kts 152°
2026-05-05 18:41 52.16707 20.96994 360 ft 13 kts 152°
2026-05-05 18:42 52.16651 20.97106 361 ft 13 kts 117°
2026-05-05 18:42 52.16607 20.97246 363 ft 14 kts 116°
2026-05-05 18:42 52.16566 20.97399 360 ft 15 kts 115°
2026-05-05 18:42 52.16521 20.97557 361 ft 16 kts 114°
2026-05-05 18:43 52.16478 20.97717 363 ft 16 kts 114°
2026-05-05 18:43 52.16447 20.97800 360 ft 0 kts 142°
2026-05-05 18:43 52.16412 20.97810 361 ft 7 kts 192°
2026-05-05 18:43 52.16367 20.97771 358 ft 8 kts 209°
2026-05-05 18:44 52.16318 20.97727 358 ft 9 kts 209°
2026-05-05 18:44 52.16298 20.97704 362 ft 0 kts 225°
2026-05-05 18:44 52.16298 20.97677 357 ft 8 kts 284°
2026-05-05 18:44 52.16427 20.97219 357 ft 104 kts 295°
2026-05-05 18:45 52.16888 20.95590 468 ft 203 kts 295°
2026-05-05 18:45 52.17566 20.93460 1651 ft 220 kts 293°
2026-05-05 18:45 52.18196 20.91193 2997 ft 222 kts 286°
2026-05-05 18:45 52.18312 20.88665 3866 ft 229 kts 262°
2026-05-05 18:46 52.18138 20.86070 4694 ft 230 kts 261°
2026-05-05 18:46 52.17981 20.83447 5273 ft 237 kts 267°
2026-05-05 18:46 52.18141 20.80744 5882 ft 240 kts 265°
2026-05-05 18:46 52.17810 20.78107 6554 ft 237 kts 252°
2026-05-05 18:47 52.17361 20.75514 7222 ft 238 kts 252°
2026-05-05 18:47 52.16915 20.72903 7893 ft 241 kts 252°
2026-05-05 18:47 52.16471 20.70235 8529 ft 250 kts 252°
2026-05-05 18:47 52.16014 20.67441 9057 ft 265 kts 252°
2026-05-05 18:48 52.15538 20.64471 10061 ft 269 kts 253°
2026-05-05 18:48 52.15054 20.61423 10720 ft 288 kts 253°
2026-05-05 18:48 52.14548 20.58200 11573 ft 298 kts 253°
2026-05-05 18:48 52.14035 20.54906 12608 ft 302 kts 254°
2026-05-05 18:49 52.13524 20.51610 13710 ft 305 kts 254°
2026-05-05 18:49 52.12999 20.48227 14664 ft 312 kts 255°
2026-05-05 18:49 52.12462 20.44762 15583 ft 320 kts 255°
2026-05-05 18:49 52.11929 20.41210 16499 ft 327 kts 256°
2026-05-05 18:50 52.11380 20.37582 17471 ft 333 kts 255°
2026-05-05 18:50 52.10799 20.33893 18366 ft 340 kts 255°
2026-05-05 18:50 52.10396 20.31352 18936 ft 343 kts 255°
2026-05-05 18:50 52.09798 20.27582 19820 ft 347 kts 255°
2026-05-05 18:51 52.09193 20.23760 20696 ft 351 kts 255°
2026-05-05 18:51 52.08582 20.19889 21546 ft 355 kts 255°
2026-05-05 18:51 52.07964 20.15971 22377 ft 360 kts 256°
2026-05-05 18:51 52.07337 20.12000 23182 ft 365 kts 256°
2026-05-05 18:52 52.06701 20.07978 23637 ft 367 kts 256°
2026-05-05 18:52 52.06063 20.03946 23775 ft 371 kts 255°
2026-05-05 18:52 52.05418 19.99884 23771 ft 370 kts 255°
2026-05-05 18:52 52.04773 19.95842 23785 ft 369 kts 255°
2026-05-05 18:53 52.04084 19.91838 23783 ft 368 kts 252°
2026-05-05 18:53 52.03265 19.87890 23782 ft 368 kts 251°
2026-05-05 18:53 52.02413 19.84030 23785 ft 369 kts 250°
2026-05-05 18:53 52.01541 19.80112 23785 ft 369 kts 250°
2026-05-05 18:54 52.00676 19.76194 23785 ft 370 kts 250°
2026-05-05 18:54 51.99808 19.72231 23880 ft 370 kts 250°
2026-05-05 18:54 51.98955 19.68316 24522 ft 368 kts 250°
2026-05-05 18:54 51.98099 19.64380 25125 ft 373 kts 250°
2026-05-05 18:55 51.97229 19.60388 25750 ft 377 kts 250°
2026-05-05 18:55 51.96349 19.56360 26372 ft 381 kts 250°
2026-05-05 18:55 51.95457 19.52306 27007 ft 381 kts 250°
2026-05-05 18:55 51.94565 19.48269 27659 ft 379 kts 250°
2026-05-05 18:56 51.93676 19.44252 28325 ft 377 kts 250°
2026-05-05 18:56 51.92790 19.40258 29006 ft 375 kts 250°
2026-05-05 18:56 51.91911 19.36294 29700 ft 372 kts 250°
2026-05-05 18:56 51.91048 19.32415 30317 ft 369 kts 250°
2026-05-05 18:57 51.90182 19.28521 30933 ft 366 kts 250°
2026-05-05 18:57 51.89322 19.24668 31562 ft 362 kts 251°
2026-05-05 18:57 51.88470 19.20849 32207 ft 358 kts 251°
2026-05-05 18:57 51.87628 19.17086 32862 ft 354 kts 251°
2026-05-05 18:58 51.86792 19.13362 33536 ft 351 kts 251°
2026-05-05 18:58 51.85971 19.09662 34166 ft 348 kts 251°
2026-05-05 18:58 51.85171 19.05986 34772 ft 345 kts 251°
2026-05-05 18:58 51.84382 19.02344 35386 ft 342 kts 251°
2026-05-05 18:59 51.83595 18.98719 35779 ft 346 kts 251°
2026-05-05 18:59 51.82781 18.94980 35782 ft 358 kts 251°
2026-05-05 18:59 51.81935 18.91114 35803 ft 370 kts 251°
2026-05-05 18:59 51.81063 18.87144 35805 ft 379 kts 251°
2026-05-05 19:00 51.79297 18.79139 35783 ft 374 kts 251°
2026-05-05 19:00 51.77562 18.71309 35786 ft 370 kts 251°
2026-05-05 19:01 51.75821 18.63470 35800 ft 372 kts 251°
2026-05-05 19:01 51.74061 18.55576 35802 ft 374 kts 251°
2026-05-05 19:02 51.72296 18.47685 35792 ft 374 kts 251°
2026-05-05 19:02 51.70522 18.39788 35795 ft 373 kts 251°
2026-05-05 19:03 51.68753 18.31936 35793 ft 372 kts 250°
2026-05-05 19:03 51.66995 18.24166 35792 ft 371 kts 250°
2026-05-05 19:04 51.65226 18.16376 35789 ft 370 kts 250°
2026-05-05 19:04 51.63457 18.08613 35789 ft 369 kts 250°
2026-05-05 19:05 51.61680 18.00842 35795 ft 369 kts 250°
2026-05-05 19:05 51.59904 17.93099 35791 ft 369 kts 250°
2026-05-05 19:06 51.58116 17.85356 35792 ft 369 kts 250°
2026-05-05 19:06 51.56307 17.77616 35796 ft 369 kts 250°
2026-05-05 19:07 51.54492 17.69881 35790 ft 370 kts 250°
2026-05-05 19:07 51.52670 17.62137 35788 ft 371 kts 250°
2026-05-05 19:08 51.50856 17.54445 35795 ft 371 kts 249°
2026-05-05 19:08 51.49022 17.46691 35793 ft 372 kts 249°
2026-05-05 19:09 51.47177 17.38927 35793 ft 372 kts 249°
2026-05-05 19:09 51.45335 17.31160 35790 ft 372 kts 249°
2026-05-05 19:10 51.43495 17.23396 35791 ft 373 kts 249°
2026-05-05 19:10 51.41648 17.15625 35791 ft 373 kts 249°
2026-05-05 19:11 51.39796 17.07865 35791 ft 373 kts 249°
2026-05-05 19:11 51.37940 17.00113 35788 ft 373 kts 249°
2026-05-05 19:12 51.36078 16.92368 35788 ft 372 kts 249°
2026-05-05 19:12 51.34213 16.84637 35789 ft 372 kts 249°
2026-05-05 19:13 51.32345 16.76920 35787 ft 372 kts 249°
2026-05-05 19:13 51.30471 16.69206 35788 ft 372 kts 249°
2026-05-05 19:14 51.28599 16.61526 35391 ft 376 kts 249°
2026-05-05 19:14 51.27646 16.57628 34836 ft 377 kts 248°
2026-05-05 19:14 51.26685 16.53702 34486 ft 372 kts 248°
2026-05-05 19:15 51.25749 16.49889 34124 ft 373 kts 248°
2026-05-05 19:15 51.24804 16.46040 33764 ft 373 kts 248°
2026-05-05 19:15 51.23857 16.42193 33348 ft 373 kts 248°
2026-05-05 19:15 51.22905 16.38335 32953 ft 373 kts 248°
2026-05-05 19:16 51.21955 16.34490 32559 ft 373 kts 248°
2026-05-05 19:16 51.20989 16.30584 32154 ft 374 kts 248°
2026-05-05 19:16 51.20030 16.26717 31774 ft 376 kts 248°
2026-05-05 19:16 51.19079 16.22887 31401 ft 377 kts 248°
2026-05-05 19:17 51.18106 16.18974 31028 ft 378 kts 248°
2026-05-05 19:17 51.17138 16.15088 30659 ft 379 kts 248°
2026-05-05 19:17 51.16167 16.11200 30397 ft 375 kts 248°
2026-05-05 19:17 51.15206 16.07356 30022 ft 372 kts 248°
2026-05-05 19:18 51.14251 16.03542 29625 ft 369 kts 248°
2026-05-05 19:18 51.13303 15.99764 29198 ft 366 kts 248°
2026-05-05 19:18 51.12359 15.96006 28779 ft 364 kts 248°
2026-05-05 19:18 51.11407 15.92224 28366 ft 362 kts 248°
2026-05-05 19:19 51.10474 15.88523 27970 ft 360 kts 247°
2026-05-05 19:19 51.09544 15.84840 27563 ft 358 kts 247°
2026-05-05 19:19 51.08616 15.81173 27170 ft 356 kts 247°
2026-05-05 19:19 51.07695 15.77535 26785 ft 354 kts 247°
2026-05-05 19:20 51.06787 15.73957 26396 ft 352 kts 247°
2026-05-05 19:20 51.05870 15.70353 26022 ft 350 kts 247°
2026-05-05 19:20 51.04959 15.66773 25651 ft 349 kts 246°
2026-05-05 19:20 51.04052 15.63210 25287 ft 347 kts 246°
2026-05-05 19:21 51.03148 15.59668 24926 ft 345 kts 246°
2026-05-05 19:21 51.02247 15.56149 24562 ft 343 kts 246°
2026-05-05 19:21 51.01349 15.52651 24213 ft 341 kts 246°
2026-05-05 19:21 51.00453 15.49176 23858 ft 339 kts 246°
2026-05-05 19:22 50.99559 15.45719 23511 ft 338 kts 246°
2026-05-05 19:22 50.98666 15.42271 23124 ft 336 kts 246°
2026-05-05 19:22 50.97781 15.38852 22720 ft 335 kts 246°
2026-05-05 19:22 50.96895 15.35437 22315 ft 333 kts 246°
2026-05-05 19:23 50.96013 15.32046 21915 ft 332 kts 246°
2026-05-05 19:23 50.95151 15.28657 21521 ft 331 kts 248°
2026-05-05 19:23 50.94400 15.25206 21138 ft 331 kts 250°
2026-05-05 19:23 50.93702 15.21737 20745 ft 330 kts 251°
2026-05-05 19:24 50.93015 15.18274 20374 ft 329 kts 251°
2026-05-05 19:24 50.92326 15.14826 20011 ft 328 kts 250°
2026-05-05 19:24 50.91630 15.11386 19642 ft 327 kts 250°
2026-05-05 19:24 50.90933 15.07967 19275 ft 325 kts 250°
2026-05-05 19:25 50.90236 15.04564 18918 ft 324 kts 250°
2026-05-05 19:25 50.89539 15.01176 18560 ft 323 kts 250°
2026-05-05 19:25 50.88853 14.97843 18221 ft 322 kts 250°
2026-05-05 19:25 50.88157 14.94478 17841 ft 321 kts 250°
2026-05-05 19:26 50.87464 14.91132 17444 ft 320 kts 250°
2026-05-05 19:26 50.86637 14.87870 17040 ft 318 kts 239°
2026-05-05 19:26 50.85416 14.84994 16657 ft 313 kts 229°
2026-05-05 19:26 50.83895 14.82578 16270 ft 308 kts 220°
2026-05-05 19:27 50.82263 14.80411 15870 ft 304 kts 219°
2026-05-05 19:27 50.80637 14.78310 15506 ft 300 kts 218°
2026-05-05 19:27 50.79026 14.76232 15137 ft 298 kts 218°
2026-05-05 19:27 50.77426 14.74159 14772 ft 296 kts 218°
2026-05-05 19:28 50.75842 14.72097 14410 ft 294 kts 218°
2026-05-05 19:28 50.74270 14.70045 14056 ft 292 kts 218°
2026-05-05 19:28 50.72710 14.68007 13700 ft 290 kts 218°
2026-05-05 19:28 50.71160 14.65981 13315 ft 289 kts 218°
2026-05-05 19:29 50.69615 14.63962 12918 ft 287 kts 218°
2026-05-05 19:29 50.68079 14.61954 12532 ft 286 kts 218°
2026-05-05 19:29 50.67067 14.60633 12277 ft 286 kts 218°
2026-05-05 19:29 50.65044 14.57991 11766 ft 284 kts 218°
2026-05-05 19:30 50.63523 14.56008 11393 ft 283 kts 218°
2026-05-05 19:30 50.62003 14.54030 11023 ft 282 kts 218°
2026-05-05 19:30 50.61004 14.52729 10773 ft 281 kts 218°
2026-05-05 19:30 50.59475 14.50826 10408 ft 280 kts 211°
2026-05-05 19:31 50.57732 14.49500 10050 ft 278 kts 198°
2026-05-05 19:31 50.55845 14.48859 9696 ft 276 kts 189°
2026-05-05 19:31 50.53950 14.48443 9304 ft 275 kts 188°
2026-05-05 19:31 50.52051 14.48050 8914 ft 275 kts 187°
2026-05-05 19:32 50.50161 14.47652 8511 ft 273 kts 187°
2026-05-05 19:32 50.48278 14.47245 8149 ft 272 kts 187°
2026-05-05 19:32 50.46401 14.46832 7765 ft 271 kts 187°
2026-05-05 19:32 50.44538 14.46416 7397 ft 270 kts 187°
2026-05-05 19:33 50.42682 14.45999 7027 ft 269 kts 187°
2026-05-05 19:33 50.40829 14.45582 6668 ft 268 kts 187°
2026-05-05 19:33 50.38987 14.45167 6304 ft 267 kts 187°
2026-05-05 19:33 50.37176 14.44557 5924 ft 267 kts 199°
2026-05-05 19:34 50.35624 14.42976 5527 ft 271 kts 228°
2026-05-05 19:34 50.34447 14.40683 5183 ft 268 kts 220°
2026-05-05 19:34 50.33002 14.38870 4827 ft 266 kts 216°
2026-05-05 19:35 50.30163 14.35174 4082 ft 269 kts 219°
2026-05-05 19:35 50.28634 14.33435 4013 ft 269 kts 212°
2026-05-05 19:35 50.27100 14.31804 4001 ft 271 kts 212°
2026-05-05 19:35 50.25553 14.30166 3998 ft 264 kts 212°
2026-05-05 19:36 50.24059 14.28582 3980 ft 249 kts 212°
2026-05-05 19:36 50.22682 14.27117 3971 ft 235 kts 214°
2026-05-05 19:36 50.21691 14.25780 3985 ft 224 kts 218°
2026-05-05 19:36 50.20357 14.24839 4000 ft 206 kts 190°
2026-05-05 19:37 50.19110 14.23809 3980 ft 212 kts 229°
2026-05-05 19:37 50.18622 14.21691 3988 ft 212 kts 273°
2026-05-05 19:37 50.19139 14.19589 4011 ft 209 kts 304°
2026-05-05 19:37 50.19929 14.17687 4001 ft 213 kts 295°
2026-05-05 19:38 50.20048 14.15398 3994 ft 214 kts 249°
2026-05-05 19:38 50.19165 14.13634 3999 ft 207 kts 210°
2026-05-05 19:38 50.17792 14.12898 3511 ft 220 kts 176°
2026-05-05 19:38 50.16348 14.13658 2905 ft 219 kts 145°
2026-05-05 19:39 50.15302 14.15167 2623 ft 194 kts 123°
2026-05-05 19:39 50.14528 14.16830 2384 ft 187 kts 123°
2026-05-05 19:39 50.13777 14.18385 2131 ft 170 kts 123°
2026-05-05 19:39 50.13095 14.19793 1941 ft 153 kts 122°
2026-05-05 19:40 50.12471 14.21086 1719 ft 148 kts 124°
2026-05-05 19:40 50.11866 14.22336 1500 ft 139 kts 124°
2026-05-05 19:40 50.11304 14.23490 1350 ft 129 kts 124°
2026-05-05 19:40 50.10791 14.24568 1192 ft 120 kts 125°
2026-05-05 19:41 50.10363 14.25447 1177 ft 72 kts 127°
2026-05-05 19:41 50.10136 14.25916 1185 ft 50 kts 127°
2026-05-05 19:41 50.09935 14.26335 1194 ft 45 kts 123°
2026-05-05 19:41 50.09888 14.26749 1207 ft 37 kts 82°
2026-05-05 19:42 50.09895 14.26818 1208 ft 0 kts 81°
2026-05-05 19:42 50.09898 14.26853 1209 ft 11 kts 81°
2026-05-05 19:43 50.09916 14.27062 1211 ft 27 kts 83°
2026-05-05 19:43 50.09944 14.27363 1205 ft 27 kts 82°
2026-05-05 19:43 50.09970 14.27648 1196 ft 26 kts 82°
2026-05-05 19:43 50.09993 14.27914 1192 ft 24 kts 83°
2026-05-05 19:44 50.09991 14.28158 1194 ft 23 kts 116°
2026-05-05 19:44 50.09915 14.28370 1201 ft 22 kts 117°
2026-05-05 19:44 50.09887 14.28457 1204 ft 0 kts 107°
2026-05-05 19:44 50.09884 14.28471 1204 ft 4 kts 102°
2026-05-05 19:45 50.09899 14.28540 1204 ft 8 kts 33°
2026-05-05 19:45 50.09959 14.28559 1201 ft 10 kts 355°
2026-05-05 19:45 50.10024 14.28603 1198 ft 11 kts 39°
2026-05-05 19:45 50.10081 14.28675 1193 ft 0 kts 42°